EJU49AN GVNP-LPPT

Flight info

Callsign EJU49AN
Flight time 3h 44m
Altitude 35000
Route AMDER DCT CVS UN873 IPERA N873 ODEGI/N0444F360 N873 GDV N858 VASTO DCT BAROK DCT VATZI
Aircraft A320/M-SDE2E3FGHIJ1RWXYZ/LB1

Departure

Time 2026-04-25 17:51
Airport Nelson Mandela International Airport (GVNP)

Arrival

Time 2026-04-25 21:36
Airport Lisbon Humberto Delgado Airport (LPPT)
Time Latitude Longitude Altitude Speed Heading
2026-04-25 17:22 14.94484 -23.48568 338 ft 0 kts 292°
2026-04-25 17:42 14.94481 -23.48560 335 ft 2 kts 292°
2026-04-25 17:42 14.94475 -23.48545 336 ft 2 kts 292°
2026-04-25 17:42 14.94469 -23.48530 338 ft 2 kts 281°
2026-04-25 17:43 14.94468 -23.48513 351 ft 2 kts 248°
2026-04-25 17:43 14.94476 -23.48498 354 ft 2 kts 225°
2026-04-25 17:43 14.94484 -23.48491 353 ft 0 kts 203°
2026-04-25 17:45 14.94479 -23.48493 354 ft 4 kts 203°
2026-04-25 17:46 14.94430 -23.48514 341 ft 8 kts 201°
2026-04-25 17:46 14.94377 -23.48514 339 ft 8 kts 150°
2026-04-25 17:46 14.94341 -23.48439 345 ft 14 kts 110°
2026-04-25 17:46 14.94266 -23.48407 342 ft 13 kts 199°
2026-04-25 17:47 14.94186 -23.48440 340 ft 12 kts 202°
2026-04-25 17:47 14.94119 -23.48468 347 ft 9 kts 202°
2026-04-25 17:47 14.94032 -23.48504 350 ft 17 kts 202°
2026-04-25 17:47 14.93926 -23.48548 338 ft 16 kts 202°
2026-04-25 17:48 14.93683 -23.48648 337 ft 21 kts 202°
2026-04-25 17:48 14.93547 -23.48703 333 ft 21 kts 201°
2026-04-25 17:48 14.93415 -23.48758 332 ft 20 kts 202°
2026-04-25 17:49 14.93300 -23.48822 330 ft 17 kts 225°
2026-04-25 17:49 14.93251 -23.48823 327 ft 2 kts 61°
2026-04-25 17:49 14.93271 -23.48816 328 ft 6 kts 14°
2026-04-25 17:49 14.93299 -23.48807 331 ft 0 kts 22°
2026-04-25 17:51 14.93303 -23.48805 330 ft 5 kts 22°
2026-04-25 17:51 14.93577 -23.48691 334 ft 81 kts 21°
2026-04-25 17:51 14.94319 -23.48385 348 ft 146 kts 22°
2026-04-25 17:51 14.95324 -23.47971 847 ft 157 kts 24°
2026-04-25 17:52 14.96348 -23.47534 1603 ft 162 kts 21°
2026-04-25 17:52 14.96693 -23.47390 1800 ft 168 kts 20°
2026-04-25 17:52 14.98670 -23.46576 2308 ft 202 kts 21°
2026-04-25 17:52 15.00046 -23.46006 2539 ft 225 kts 21°
2026-04-25 17:53 15.01573 -23.45374 2893 ft 246 kts 20°
2026-04-25 17:53 15.03183 -23.44706 3591 ft 254 kts 21°
2026-04-25 17:53 15.04845 -23.44017 4280 ft 261 kts 20°
2026-04-25 17:53 15.06555 -23.43308 4866 ft 269 kts 20°
2026-04-25 17:54 15.08314 -23.42579 5441 ft 275 kts 19°
2026-04-25 17:54 15.10108 -23.41842 6038 ft 280 kts 17°
2026-04-25 17:54 15.12005 -23.41368 6601 ft 283 kts
2026-04-25 17:54 15.13960 -23.41000 7168 ft 288 kts
2026-04-25 17:55 15.15946 -23.40629 7742 ft 292 kts
2026-04-25 17:55 15.17962 -23.40252 8343 ft 297 kts
2026-04-25 17:55 15.20005 -23.39868 8943 ft 300 kts
2026-04-25 17:55 15.22077 -23.39477 9549 ft 305 kts
2026-04-25 17:56 15.24178 -23.39081 10112 ft 310 kts
2026-04-25 17:56 15.26375 -23.38670 10256 ft 331 kts
2026-04-25 17:56 15.28714 -23.38233 10403 ft 350 kts
2026-04-25 17:56 15.31141 -23.37776 10841 ft 357 kts
2026-04-25 17:57 15.33596 -23.37313 11422 ft 360 kts
2026-04-25 17:57 15.36067 -23.36846 12039 ft 362 kts
2026-04-25 17:57 15.38546 -23.36377 12656 ft 363 kts
2026-04-25 17:57 15.39387 -23.36218 12855 ft 364 kts
2026-04-25 17:58 15.43541 -23.35434 13851 ft 367 kts
2026-04-25 17:58 15.46061 -23.34957 14338 ft 369 kts
2026-04-25 17:58 15.48601 -23.34475 14814 ft 373 kts
2026-04-25 17:58 15.51161 -23.33988 15275 ft 376 kts
2026-04-25 17:59 15.53746 -23.33500 15736 ft 379 kts
2026-04-25 17:59 15.56351 -23.33010 16184 ft 382 kts
2026-04-25 17:59 15.58977 -23.32500 16631 ft 386 kts 10°
2026-04-25 17:59 15.61572 -23.31708 17057 ft 391 kts 14°
2026-04-25 18:00 15.64178 -23.30858 17491 ft 394 kts 14°
2026-04-25 18:00 15.66770 -23.30014 17908 ft 397 kts 14°
2026-04-25 18:00 15.69420 -23.29153 18313 ft 401 kts 14°
2026-04-25 18:00 15.72086 -23.28285 18698 ft 403 kts 14°
2026-04-25 18:01 15.74765 -23.27412 19108 ft 404 kts 14°
2026-04-25 18:01 15.77450 -23.26537 19531 ft 405 kts 14°
2026-04-25 18:01 15.80144 -23.25664 19957 ft 406 kts 14°
2026-04-25 18:01 15.82847 -23.24788 20383 ft 407 kts 14°
2026-04-25 18:02 15.85556 -23.23909 20807 ft 409 kts 14°
2026-04-25 18:02 15.88273 -23.23023 21225 ft 410 kts 14°
2026-04-25 18:02 15.90998 -23.22133 21638 ft 411 kts 14°
2026-04-25 18:02 15.93733 -23.21241 22033 ft 413 kts 14°
2026-04-25 18:03 15.96477 -23.20345 22438 ft 414 kts 14°
2026-04-25 18:03 15.99229 -23.19446 22825 ft 415 kts 14°
2026-04-25 18:03 16.01991 -23.18545 23204 ft 417 kts 14°
2026-04-25 18:03 16.04763 -23.17641 23565 ft 418 kts 14°
2026-04-25 18:04 16.07547 -23.16735 23857 ft 420 kts 14°
2026-04-25 18:04 16.10339 -23.15828 24146 ft 421 kts 14°
2026-04-25 18:04 16.13144 -23.14917 24431 ft 423 kts 14°
2026-04-25 18:04 16.15957 -23.14001 24713 ft 424 kts 14°
2026-04-25 18:05 16.18779 -23.13080 24985 ft 426 kts 13°
2026-04-25 18:05 16.21611 -23.12155 25248 ft 427 kts 13°
2026-04-25 18:05 16.24453 -23.11225 25524 ft 429 kts 13°
2026-04-25 18:05 16.27305 -23.10292 25784 ft 430 kts 13°
2026-04-25 18:06 16.30169 -23.09357 26043 ft 432 kts 13°
2026-04-25 18:06 16.33039 -23.08420 26296 ft 433 kts 13°
2026-04-25 18:06 16.35920 -23.07480 26542 ft 435 kts 13°
2026-04-25 18:06 16.38811 -23.06534 26796 ft 436 kts 13°
2026-04-25 18:07 16.41713 -23.05584 27036 ft 438 kts 13°
2026-04-25 18:07 16.44623 -23.04631 27277 ft 439 kts 13°
2026-04-25 18:07 16.47542 -23.03674 27519 ft 441 kts 13°
2026-04-25 18:07 16.49477 -23.03039 27665 ft 442 kts 12°
2026-04-25 18:08 16.52415 -23.02073 27892 ft 443 kts 12°
2026-04-25 18:08 16.55360 -23.01107 28111 ft 445 kts 12°
2026-04-25 18:08 16.58314 -23.00140 28336 ft 446 kts 12°
2026-04-25 18:08 16.61279 -22.99170 28555 ft 447 kts 12°
2026-04-25 18:09 16.64250 -22.98198 28765 ft 448 kts 12°
2026-04-25 18:09 16.67232 -22.97220 28972 ft 450 kts 12°
2026-04-25 18:09 16.70221 -22.96238 29169 ft 451 kts 12°
2026-04-25 18:09 16.72203 -22.95569 29297 ft 454 kts 14°
2026-04-25 18:10 16.76056 -22.93666 29544 ft 463 kts 24°
2026-04-25 18:10 16.78850 -22.91973 29728 ft 465 kts 24°
2026-04-25 18:10 16.81648 -22.90275 29916 ft 466 kts 24°
2026-04-25 18:10 16.84448 -22.88575 30153 ft 465 kts 24°
2026-04-25 18:11 16.87245 -22.86875 30355 ft 465 kts 24°
2026-04-25 18:11 16.90042 -22.85175 30546 ft 466 kts 24°
2026-04-25 18:11 16.92844 -22.83473 30736 ft 466 kts 24°
2026-04-25 18:11 16.95647 -22.81772 30930 ft 466 kts 24°
2026-04-25 18:12 16.98450 -22.80072 31116 ft 466 kts 24°
2026-04-25 18:12 17.01259 -22.78369 31309 ft 467 kts 24°
2026-04-25 18:12 17.04066 -22.76667 31498 ft 467 kts 24°
2026-04-25 18:12 17.06878 -22.74960 31695 ft 467 kts 24°
2026-04-25 18:13 17.09691 -22.73250 31883 ft 468 kts 24°
2026-04-25 18:13 17.12504 -22.71536 32075 ft 468 kts 24°
2026-04-25 18:13 17.15318 -22.69821 32261 ft 469 kts 24°
2026-04-25 18:14 17.20954 -22.66389 32642 ft 469 kts 24°
2026-04-25 18:14 17.23778 -22.64666 32829 ft 470 kts 24°
2026-04-25 18:14 17.26600 -22.62943 33014 ft 470 kts 24°
2026-04-25 18:14 17.29430 -22.61217 33189 ft 471 kts 24°
2026-04-25 18:15 17.32262 -22.59491 33368 ft 471 kts 24°
2026-04-25 18:15 17.35098 -22.57765 33557 ft 472 kts 24°
2026-04-25 18:15 17.37934 -22.56037 33749 ft 472 kts 24°
2026-04-25 18:15 17.40770 -22.54304 33930 ft 472 kts 24°
2026-04-25 18:16 17.43611 -22.52567 34088 ft 473 kts 24°
2026-04-25 18:16 17.46451 -22.50827 34241 ft 473 kts 24°
2026-04-25 18:16 17.52133 -22.47349 34563 ft 473 kts 24°
2026-04-25 18:17 17.54975 -22.45609 34711 ft 473 kts 24°
2026-04-25 18:17 17.57815 -22.43870 34880 ft 473 kts 24°
2026-04-25 18:17 17.60657 -22.42135 34956 ft 472 kts 24°
2026-04-25 18:18 17.66321 -22.38670 34971 ft 471 kts 24°
2026-04-25 18:18 17.71974 -22.35201 34970 ft 471 kts 24°
2026-04-25 18:19 17.77627 -22.31728 34975 ft 471 kts 24°
2026-04-25 18:19 17.83285 -22.28257 34974 ft 471 kts 24°
2026-04-25 18:20 17.88941 -22.24788 34971 ft 471 kts 24°
2026-04-25 18:20 17.94562 -22.21336 34972 ft 471 kts 24°
2026-04-25 18:21 18.00219 -22.17857 34976 ft 472 kts 24°
2026-04-25 18:21 18.05879 -22.14366 34977 ft 472 kts 24°
2026-04-25 18:22 18.11544 -22.10876 34979 ft 472 kts 24°
2026-04-25 18:22 18.17209 -22.07385 34979 ft 472 kts 24°
2026-04-25 18:23 18.22873 -22.03889 34982 ft 472 kts 24°
2026-04-25 18:23 18.28535 -22.00389 34985 ft 472 kts 24°
2026-04-25 18:24 18.34202 -21.96887 34987 ft 472 kts 24°
2026-04-25 18:24 18.39867 -21.93380 34993 ft 473 kts 24°
2026-04-25 18:25 18.45538 -21.89868 34993 ft 473 kts 24°
2026-04-25 18:25 18.51208 -21.86357 34995 ft 473 kts 24°
2026-04-25 18:26 18.56885 -21.82846 34992 ft 473 kts 24°
2026-04-25 18:26 18.62554 -21.79326 34997 ft 473 kts 24°
2026-04-25 18:27 18.68221 -21.75804 34998 ft 473 kts 24°
2026-04-25 18:27 18.73891 -21.72282 34996 ft 473 kts 24°
2026-04-25 18:28 18.79556 -21.68755 34995 ft 473 kts 24°
2026-04-25 18:28 18.85218 -21.65234 34995 ft 472 kts 24°
2026-04-25 18:29 18.93706 -21.59952 34991 ft 472 kts 24°
2026-04-25 18:30 19.05016 -21.52895 34986 ft 472 kts 24°
2026-04-25 18:30 19.10665 -21.49362 34985 ft 472 kts 24°
2026-04-25 18:31 19.16316 -21.45818 34980 ft 472 kts 24°
2026-04-25 18:31 19.21970 -21.42281 34990 ft 472 kts 24°
2026-04-25 18:32 19.27590 -21.38772 34987 ft 472 kts 23°
2026-04-25 18:32 19.33245 -21.35231 34983 ft 472 kts 24°
2026-04-25 18:33 19.38896 -21.31678 34984 ft 472 kts 23°
2026-04-25 18:33 19.44551 -21.28129 34984 ft 473 kts 23°
2026-04-25 18:34 19.50210 -21.24573 34982 ft 473 kts 23°
2026-04-25 18:34 19.55866 -21.21016 34983 ft 473 kts 23°
2026-04-25 18:35 19.61524 -21.17458 34983 ft 473 kts 23°
2026-04-25 18:35 19.67187 -21.13901 34982 ft 473 kts 23°
2026-04-25 18:36 19.72852 -21.10334 34994 ft 474 kts 23°
2026-04-25 18:36 19.78521 -21.06761 34987 ft 474 kts 23°
2026-04-25 18:37 19.84191 -21.03177 34991 ft 474 kts 23°
2026-04-25 18:37 19.89856 -20.99589 34988 ft 474 kts 23°
2026-04-25 18:38 19.95524 -20.96003 34999 ft 474 kts 23°
2026-04-25 18:38 20.01193 -20.92418 34997 ft 474 kts 22°
2026-04-25 18:39 20.06866 -20.88831 34994 ft 474 kts 22°
2026-04-25 18:39 20.12531 -20.85237 34995 ft 474 kts 22°
2026-04-25 18:40 20.18195 -20.81642 34997 ft 474 kts 22°
2026-04-25 18:40 20.23860 -20.78046 35000 ft 474 kts 22°
2026-04-25 18:41 20.29527 -20.74449 34996 ft 474 kts 22°
2026-04-25 18:41 20.35192 -20.70843 34995 ft 475 kts 22°
2026-04-25 18:42 20.38978 -20.68422 34997 ft 475 kts 22°
2026-04-25 18:42 20.46517 -20.63602 34999 ft 475 kts 22°
2026-04-25 18:43 20.52182 -20.59988 35003 ft 474 kts 22°
2026-04-25 18:43 20.57848 -20.56368 35000 ft 474 kts 22°
2026-04-25 18:44 20.63506 -20.52741 34998 ft 474 kts 22°
2026-04-25 18:44 20.69165 -20.49115 34999 ft 475 kts 22°
2026-04-25 18:45 20.74829 -20.45490 35001 ft 475 kts 22°
2026-04-25 18:45 20.80491 -20.41847 35006 ft 475 kts 22°
2026-04-25 18:46 20.86151 -20.38199 35008 ft 475 kts 21°
2026-04-25 18:46 20.91815 -20.34563 35004 ft 475 kts 21°
2026-04-25 18:47 20.97476 -20.30917 35002 ft 475 kts 21°
2026-04-25 18:47 21.03136 -20.27262 35000 ft 475 kts 21°
2026-04-25 18:48 21.08799 -20.23613 35004 ft 475 kts 21°
2026-04-25 18:48 21.14468 -20.19965 35004 ft 475 kts 21°
2026-04-25 18:49 21.20136 -20.16296 35007 ft 476 kts 21°
2026-04-25 18:49 21.25802 -20.12626 35007 ft 476 kts 21°
2026-04-25 18:50 21.31479 -20.08961 35008 ft 476 kts 21°
2026-04-25 18:50 21.37158 -20.05289 35013 ft 477 kts 21°
2026-04-25 18:51 21.40920 -20.02849 35009 ft 477 kts 21°
2026-04-25 18:51 21.48483 -19.97934 35012 ft 478 kts 21°
2026-04-25 18:52 21.54171 -19.94239 35010 ft 478 kts 21°
2026-04-25 18:52 21.59866 -19.90541 35008 ft 479 kts 21°
2026-04-25 18:53 21.64635 -19.87428 35011 ft 479 kts 21°
2026-04-25 18:53 21.70296 -19.83731 35012 ft 479 kts 21°
2026-04-25 18:54 21.78854 -19.78152 35015 ft 480 kts 21°
2026-04-25 18:55 21.84570 -19.74432 35016 ft 480 kts 21°
2026-04-25 18:55 21.90288 -19.70700 35017 ft 481 kts 21°
2026-04-25 18:56 21.96004 -19.66956 35015 ft 481 kts 21°
2026-04-25 18:56 22.01722 -19.63201 35020 ft 481 kts 21°
2026-04-25 18:57 22.07449 -19.59451 35023 ft 482 kts 21°
2026-04-25 18:57 22.13180 -19.55705 35024 ft 482 kts 21°
2026-04-25 18:58 22.18915 -19.51947 35028 ft 482 kts 21°
2026-04-25 18:58 22.27513 -19.46281 35028 ft 483 kts 21°
2026-04-25 18:59 22.38985 -19.38709 35032 ft 483 kts 21°
2026-04-25 19:00 22.47603 -19.33034 35035 ft 484 kts 21°
2026-04-25 19:01 22.56221 -19.27347 35038 ft 484 kts 21°
2026-04-25 19:01 22.61968 -19.23539 35041 ft 484 kts 21°
2026-04-25 19:02 22.70588 -19.17830 35041 ft 484 kts 21°
2026-04-25 19:03 22.78236 -19.12753 35025 ft 484 kts 21°
2026-04-25 19:03 22.84951 -19.08289 35043 ft 485 kts 21°
2026-04-25 19:04 22.93576 -19.02558 35055 ft 485 kts 21°
2026-04-25 19:05 23.05067 -18.94892 35051 ft 485 kts 21°
2026-04-25 19:06 23.10814 -18.91062 35043 ft 485 kts 21°
2026-04-25 19:06 23.19435 -18.85308 35052 ft 485 kts 21°
2026-04-25 19:07 23.28014 -18.79573 35051 ft 485 kts 22°
2026-04-25 19:08 23.36623 -18.73799 35055 ft 485 kts 22°
2026-04-25 19:09 23.47130 -18.66744 35053 ft 484 kts 22°
2026-04-25 19:10 23.56701 -18.60311 35057 ft 484 kts 22°
2026-04-25 19:10 23.62433 -18.56447 35058 ft 484 kts 22°
2026-04-25 19:11 23.68160 -18.52586 35059 ft 484 kts 22°
2026-04-25 19:11 23.73883 -18.48723 35061 ft 484 kts 22°
2026-04-25 19:12 23.79607 -18.44862 35059 ft 483 kts 22°
2026-04-25 19:12 23.85323 -18.40996 35058 ft 483 kts 22°
2026-04-25 19:13 23.91037 -18.37128 35062 ft 483 kts 22°
2026-04-25 19:13 23.96747 -18.33249 35062 ft 483 kts 22°
2026-04-25 19:14 24.02418 -18.29397 35066 ft 483 kts 22°
2026-04-25 19:14 24.08124 -18.25527 35066 ft 483 kts 22°
2026-04-25 19:15 24.13831 -18.21657 35066 ft 482 kts 22°
2026-04-25 19:15 24.19531 -18.17783 35067 ft 482 kts 23°
2026-04-25 19:16 24.25221 -18.13903 35069 ft 482 kts 23°
2026-04-25 19:16 24.30909 -18.10019 35070 ft 481 kts 23°
2026-04-25 19:17 24.36588 -18.06139 35068 ft 481 kts 23°
2026-04-25 19:17 24.42264 -18.02254 35066 ft 481 kts 23°
2026-04-25 19:18 24.47941 -17.98370 35066 ft 481 kts 23°
2026-04-25 19:18 24.53621 -17.94483 35069 ft 481 kts 23°
2026-04-25 19:19 24.59299 -17.90593 35070 ft 481 kts 23°
2026-04-25 19:19 24.64969 -17.86699 35071 ft 480 kts 23°
2026-04-25 19:20 24.70596 -17.82830 35072 ft 480 kts 23°
2026-04-25 19:20 24.76257 -17.78934 35068 ft 480 kts 23°
2026-04-25 19:21 24.81915 -17.75037 35066 ft 480 kts 23°
2026-04-25 19:21 24.90400 -17.69179 35065 ft 480 kts 23°
2026-04-25 19:22 24.96055 -17.65275 35066 ft 480 kts 23°
2026-04-25 19:23 25.04545 -17.59418 35068 ft 480 kts 23°
2026-04-25 19:23 25.13028 -17.53529 35073 ft 480 kts 24°
2026-04-25 19:24 25.18684 -17.49597 35071 ft 480 kts 23°
2026-04-25 19:24 25.24352 -17.45654 35240 ft 483 kts 23°
2026-04-25 19:25 25.30040 -17.41697 35552 ft 483 kts 23°
2026-04-25 19:25 25.32884 -17.39715 35740 ft 483 kts 23°
2026-04-25 19:25 25.35726 -17.37735 35888 ft 483 kts 23°
2026-04-25 19:26 25.38569 -17.35754 36034 ft 483 kts 23°
2026-04-25 19:26 25.41377 -17.33797 36064 ft 484 kts 23°
2026-04-25 19:26 25.47067 -17.29831 36062 ft 483 kts 23°
2026-04-25 19:27 25.50871 -17.27173 36061 ft 483 kts 23°
2026-04-25 19:27 25.58439 -17.21867 36065 ft 484 kts 23°
2026-04-25 19:28 25.64129 -17.17877 36067 ft 484 kts 23°
2026-04-25 19:28 25.69817 -17.13888 36071 ft 484 kts 23°
2026-04-25 19:29 25.75508 -17.09894 36075 ft 484 kts 23°
2026-04-25 19:29 25.81203 -17.05898 36079 ft 484 kts 23°
2026-04-25 19:30 25.86892 -17.01895 36080 ft 484 kts 24°
2026-04-25 19:30 25.92572 -16.97877 36079 ft 484 kts 24°
2026-04-25 19:31 25.98257 -16.93862 36081 ft 484 kts 24°
2026-04-25 19:31 26.03936 -16.89849 36078 ft 484 kts 24°
2026-04-25 19:32 26.09618 -16.85839 36081 ft 484 kts 24°
2026-04-25 19:32 26.13414 -16.83148 36077 ft 483 kts 24°
2026-04-25 19:33 26.20963 -16.77797 36082 ft 483 kts 24°
2026-04-25 19:33 26.26639 -16.73781 36085 ft 483 kts 24°
2026-04-25 19:34 26.32313 -16.69769 36085 ft 483 kts 24°
2026-04-25 19:34 26.37978 -16.65743 36079 ft 483 kts 24°
2026-04-25 19:35 26.43634 -16.61717 36078 ft 482 kts 24°
2026-04-25 19:35 26.49254 -16.57729 36085 ft 482 kts 24°
2026-04-25 19:36 26.54905 -16.53708 36078 ft 482 kts 24°
2026-04-25 19:36 26.60551 -16.49684 36085 ft 481 kts 24°
2026-04-25 19:37 26.66189 -16.45664 36089 ft 481 kts 24°
2026-04-25 19:37 26.71828 -16.41641 36089 ft 481 kts 24°
2026-04-25 19:38 26.77459 -16.37611 36088 ft 480 kts 24°
2026-04-25 19:38 26.83085 -16.33583 36087 ft 480 kts 24°
2026-04-25 19:39 26.88709 -16.29563 36087 ft 479 kts 24°
2026-04-25 19:39 26.94325 -16.25535 36089 ft 479 kts 25°
2026-04-25 19:40 26.99930 -16.21490 36091 ft 479 kts 25°
2026-04-25 19:40 27.05531 -16.17441 36090 ft 478 kts 25°
2026-04-25 19:41 27.11120 -16.13401 36090 ft 478 kts 25°
2026-04-25 19:41 27.14858 -16.10703 36088 ft 477 kts 25°
2026-04-25 19:42 27.21345 -16.06020 36086 ft 476 kts 25°
2026-04-25 19:42 27.26911 -16.01990 36086 ft 476 kts 25°
2026-04-25 19:43 27.32467 -15.97952 36085 ft 475 kts 25°
2026-04-25 19:43 27.38016 -15.93916 36083 ft 474 kts 25°
2026-04-25 19:44 27.43561 -15.89896 36083 ft 474 kts 25°
2026-04-25 19:44 27.49095 -15.85876 36084 ft 473 kts 26°
2026-04-25 19:45 27.54614 -15.81848 36079 ft 472 kts 26°
2026-04-25 19:45 27.60127 -15.77817 36075 ft 472 kts 26°
2026-04-25 19:46 27.65630 -15.73795 36074 ft 471 kts 26°
2026-04-25 19:46 27.71126 -15.69775 36072 ft 471 kts 26°
2026-04-25 19:47 27.76618 -15.65759 36073 ft 470 kts 26°
2026-04-25 19:47 27.82104 -15.61745 36076 ft 470 kts 26°
2026-04-25 19:48 27.87578 -15.57726 36074 ft 469 kts 26°
2026-04-25 19:48 27.93040 -15.53709 36073 ft 468 kts 26°
2026-04-25 19:49 27.97574 -15.50373 36074 ft 468 kts 26°
2026-04-25 19:49 28.03946 -15.45678 36076 ft 467 kts 27°
2026-04-25 19:50 28.12065 -15.39674 36066 ft 466 kts 27°
2026-04-25 19:51 28.17491 -15.35644 36066 ft 466 kts 27°
2026-04-25 19:51 28.22907 -15.31613 36072 ft 465 kts 27°
2026-04-25 19:52 28.28319 -15.27585 36080 ft 465 kts 27°
2026-04-25 19:52 28.33724 -15.23557 36079 ft 465 kts 27°
2026-04-25 19:53 28.39122 -15.19530 36085 ft 464 kts 27°
2026-04-25 19:53 28.44515 -15.15499 36085 ft 464 kts 27°
2026-04-25 19:54 28.49903 -15.11468 36086 ft 463 kts 27°
2026-04-25 19:54 28.55284 -15.07434 36091 ft 463 kts 27°
2026-04-25 19:55 28.60661 -15.03398 36092 ft 463 kts 28°
2026-04-25 19:55 28.66033 -14.99362 36090 ft 462 kts 28°
2026-04-25 19:56 28.71402 -14.95327 36095 ft 462 kts 28°
2026-04-25 19:56 28.76766 -14.91298 36095 ft 462 kts 28°
2026-04-25 19:57 28.82121 -14.87254 36095 ft 461 kts 28°
2026-04-25 19:57 28.87472 -14.83205 36095 ft 461 kts 28°
2026-04-25 19:58 28.92818 -14.79169 36094 ft 461 kts 28°
2026-04-25 19:58 28.98164 -14.75134 36102 ft 460 kts 28°
2026-04-25 19:59 29.03505 -14.71094 36102 ft 460 kts 28°
2026-04-25 19:59 29.08838 -14.67044 36088 ft 460 kts 29°
2026-04-25 20:00 29.14167 -14.62991 36089 ft 460 kts 29°
2026-04-25 20:00 29.19493 -14.58942 36094 ft 460 kts 29°
2026-04-25 20:01 29.27439 -14.52894 36081 ft 459 kts 29°
2026-04-25 20:01 29.32750 -14.48840 36082 ft 459 kts 29°
2026-04-25 20:02 29.38062 -14.44783 36082 ft 458 kts 30°
2026-04-25 20:02 29.43367 -14.40721 36079 ft 458 kts 30°
2026-04-25 20:03 29.48666 -14.36663 36086 ft 458 kts 30°
2026-04-25 20:03 29.53965 -14.32600 36090 ft 458 kts 30°
2026-04-25 20:04 29.59259 -14.28539 36089 ft 457 kts 30°
2026-04-25 20:04 29.64547 -14.24477 36088 ft 457 kts 30°
2026-04-25 20:05 29.69825 -14.20401 36090 ft 457 kts 30°
2026-04-25 20:05 29.75099 -14.16327 36090 ft 457 kts 30°
2026-04-25 20:06 29.80377 -14.12261 36088 ft 456 kts 31°
2026-04-25 20:06 29.85649 -14.08188 36090 ft 456 kts 31°
2026-04-25 20:07 29.90916 -14.04117 36086 ft 456 kts 31°
2026-04-25 20:07 29.96182 -14.00041 36086 ft 456 kts 31°
2026-04-25 20:08 30.01439 -13.95963 36088 ft 455 kts 31°
2026-04-25 20:08 30.06687 -13.91879 36091 ft 455 kts 31°
2026-04-25 20:09 30.11931 -13.87796 36091 ft 455 kts 31°
2026-04-25 20:09 30.17136 -13.83733 36087 ft 454 kts 32°
2026-04-25 20:10 30.22408 -13.79617 36087 ft 454 kts 32°
2026-04-25 20:10 30.27607 -13.75559 36086 ft 454 kts 32°
2026-04-25 20:11 30.32838 -13.71473 36086 ft 454 kts 32°
2026-04-25 20:11 30.38065 -13.67378 36084 ft 453 kts 32°
2026-04-25 20:12 30.43293 -13.63288 36082 ft 453 kts 32°
2026-04-25 20:12 30.46790 -13.60551 36080 ft 453 kts 32°
2026-04-25 20:13 30.53924 -13.55470 36078 ft 451 kts 26°
2026-04-25 20:13 30.59487 -13.52088 36074 ft 452 kts 25°
2026-04-25 20:14 30.65055 -13.48704 36075 ft 452 kts 26°
2026-04-25 20:14 30.70625 -13.45315 36075 ft 452 kts 26°
2026-04-25 20:15 30.76196 -13.41920 36074 ft 452 kts 26°
2026-04-25 20:15 30.81765 -13.38515 36074 ft 452 kts 26°
2026-04-25 20:16 30.87334 -13.35109 36075 ft 452 kts 26°
2026-04-25 20:16 30.92906 -13.31696 36072 ft 453 kts 26°
2026-04-25 20:17 30.98481 -13.28273 36074 ft 453 kts 26°
2026-04-25 20:17 31.04055 -13.24853 36074 ft 453 kts 26°
2026-04-25 20:18 31.09636 -13.21437 36075 ft 453 kts 26°
2026-04-25 20:18 31.15216 -13.18015 36074 ft 453 kts 26°
2026-04-25 20:19 31.20792 -13.14574 36072 ft 453 kts 26°
2026-04-25 20:19 31.26366 -13.11122 36074 ft 454 kts 26°
2026-04-25 20:20 31.31906 -13.07698 36074 ft 454 kts 26°
2026-04-25 20:20 31.37486 -13.04249 36077 ft 454 kts 27°
2026-04-25 20:21 31.43065 -13.00797 36075 ft 454 kts 27°
2026-04-25 20:21 31.48643 -12.97338 36073 ft 453 kts 27°
2026-04-25 20:22 31.52373 -12.95018 36073 ft 454 kts 27°
2026-04-25 20:22 31.59790 -12.90384 36070 ft 454 kts 27°
2026-04-25 20:23 31.65375 -12.86912 36071 ft 454 kts 27°
2026-04-25 20:23 31.70957 -12.83436 36073 ft 454 kts 27°
2026-04-25 20:24 31.76536 -12.79947 36076 ft 454 kts 27°
2026-04-25 20:24 31.82120 -12.76453 36078 ft 455 kts 27°
2026-04-25 20:25 31.87705 -12.72961 36077 ft 455 kts 27°
2026-04-25 20:25 31.93253 -12.69479 36076 ft 455 kts 27°
2026-04-25 20:26 31.98843 -12.65974 36077 ft 455 kts 27°
2026-04-25 20:26 32.04432 -12.62465 36082 ft 455 kts 27°
2026-04-25 20:27 32.10015 -12.58936 36084 ft 455 kts 28°
2026-04-25 20:27 32.15594 -12.55406 36082 ft 455 kts 28°
2026-04-25 20:28 32.21177 -12.51880 36083 ft 455 kts 27°
2026-04-25 20:28 32.26762 -12.48359 36084 ft 455 kts 28°
2026-04-25 20:29 32.32345 -12.44833 36084 ft 455 kts 28°
2026-04-25 20:29 32.37915 -12.41290 36082 ft 454 kts 28°
2026-04-25 20:30 32.43486 -12.37752 36089 ft 454 kts 28°
2026-04-25 20:30 32.48113 -12.34808 36083 ft 454 kts 28°
2026-04-25 20:31 32.53682 -12.31269 36081 ft 454 kts 28°
2026-04-25 20:31 32.59249 -12.27722 36076 ft 454 kts 28°
2026-04-25 20:32 32.64816 -12.24169 36080 ft 454 kts 28°
2026-04-25 20:32 32.70382 -12.20603 36081 ft 455 kts 28°
2026-04-25 20:33 32.75947 -12.17031 36080 ft 455 kts 28°
2026-04-25 20:33 32.80577 -12.14060 36079 ft 455 kts 28°
2026-04-25 20:34 32.87091 -12.09880 36078 ft 455 kts 28°
2026-04-25 20:34 32.92663 -12.06297 36082 ft 455 kts 28°
2026-04-25 20:35 32.98235 -12.02710 36084 ft 455 kts 28°
2026-04-25 20:35 33.03800 -11.99116 36081 ft 455 kts 28°
2026-04-25 20:36 33.09367 -11.95526 36079 ft 455 kts 28°
2026-04-25 20:36 33.14924 -11.91933 36081 ft 454 kts 28°
2026-04-25 20:37 33.20478 -11.88326 36080 ft 454 kts 28°
2026-04-25 20:37 33.25993 -11.84745 36088 ft 454 kts 28°
2026-04-25 20:38 33.31550 -11.81137 36085 ft 454 kts 28°
2026-04-25 20:38 33.37105 -11.77527 36085 ft 454 kts 28°
2026-04-25 20:39 33.42651 -11.73906 36088 ft 454 kts 28°
2026-04-25 20:39 33.47296 -11.70866 36084 ft 454 kts 28°
2026-04-25 20:40 33.53740 -11.66654 36084 ft 454 kts 28°
2026-04-25 20:40 33.59288 -11.63034 36091 ft 454 kts 28°
2026-04-25 20:41 33.64829 -11.59403 36091 ft 454 kts 28°
2026-04-25 20:41 33.70368 -11.55767 36094 ft 454 kts 28°
2026-04-25 20:42 33.75908 -11.52126 36093 ft 454 kts 28°
2026-04-25 20:42 33.81443 -11.48484 36097 ft 453 kts 28°
2026-04-25 20:43 33.86973 -11.44830 36095 ft 453 kts 28°
2026-04-25 20:43 33.92501 -11.41178 36089 ft 453 kts 28°
2026-04-25 20:44 33.98025 -11.37522 36090 ft 453 kts 28°
2026-04-25 20:44 34.03548 -11.33871 36085 ft 453 kts 28°
2026-04-25 20:45 34.09074 -11.30207 36084 ft 453 kts 28°
2026-04-25 20:45 34.14557 -11.26564 36093 ft 453 kts 28°
2026-04-25 20:46 34.20075 -11.22888 36097 ft 453 kts 28°
2026-04-25 20:46 34.25588 -11.19210 36102 ft 453 kts 28°
2026-04-25 20:47 34.31104 -11.15532 36105 ft 452 kts 28°
2026-04-25 20:47 34.36614 -11.11845 36104 ft 452 kts 28°
2026-04-25 20:48 34.42121 -11.08161 36110 ft 452 kts 28°
2026-04-25 20:48 34.47628 -11.04471 36107 ft 452 kts 28°
2026-04-25 20:49 34.53127 -11.00773 36111 ft 452 kts 28°
2026-04-25 20:49 34.58624 -10.97072 36112 ft 452 kts 28°
2026-04-25 20:50 34.64122 -10.93376 36112 ft 452 kts 28°
2026-04-25 20:50 34.69618 -10.89664 36114 ft 452 kts 28°
2026-04-25 20:51 34.75108 -10.85955 36120 ft 451 kts 28°
2026-04-25 20:51 34.80594 -10.82247 36119 ft 451 kts 27°
2026-04-25 20:52 34.85152 -10.79157 36121 ft 451 kts 27°
2026-04-25 20:52 34.91554 -10.74813 36125 ft 450 kts 27°
2026-04-25 20:53 34.97026 -10.71092 36127 ft 450 kts 27°
2026-04-25 20:53 35.02491 -10.67371 36126 ft 450 kts 27°
2026-04-25 20:54 35.07912 -10.63672 36124 ft 449 kts 27°
2026-04-25 20:54 35.13362 -10.59950 36128 ft 448 kts 27°
2026-04-25 20:55 35.18804 -10.56230 36129 ft 448 kts 27°
2026-04-25 20:55 35.24239 -10.52510 36129 ft 447 kts 27°
2026-04-25 20:56 35.29665 -10.48783 36126 ft 447 kts 27°
2026-04-25 20:56 35.35089 -10.45059 36123 ft 447 kts 27°
2026-04-25 20:57 35.40502 -10.41328 36124 ft 446 kts 27°
2026-04-25 20:57 35.45910 -10.37597 36124 ft 446 kts 27°
2026-04-25 20:58 35.51320 -10.33870 36126 ft 446 kts 27°
2026-04-25 20:58 35.56721 -10.30141 36122 ft 445 kts 27°
2026-04-25 20:59 35.62117 -10.26410 36123 ft 445 kts 27°
2026-04-25 20:59 35.67506 -10.22669 36123 ft 444 kts 27°
2026-04-25 21:00 35.71104 -10.20165 36119 ft 444 kts 27°
2026-04-25 21:01 35.80953 -10.13311 36120 ft 444 kts 27°
2026-04-25 21:01 35.86325 -10.09565 36123 ft 444 kts 27°
2026-04-25 21:02 35.91693 -10.05816 36125 ft 443 kts 27°
2026-04-25 21:02 35.97054 -10.02075 36124 ft 442 kts 27°
2026-04-25 21:03 36.02407 -9.98338 36118 ft 442 kts 27°
2026-04-25 21:03 36.07761 -9.94618 36122 ft 441 kts 27°
2026-04-25 21:04 36.13114 -9.90901 36121 ft 441 kts 27°
2026-04-25 21:04 36.18451 -9.87174 36124 ft 440 kts 27°
2026-04-25 21:05 36.23781 -9.83446 36119 ft 440 kts 27°
2026-04-25 21:05 36.29106 -9.79719 36118 ft 439 kts 27°
2026-04-25 21:06 36.34392 -9.76011 36120 ft 439 kts 27°
2026-04-25 21:06 36.39708 -9.72275 36115 ft 439 kts 27°
2026-04-25 21:07 36.45023 -9.68542 36116 ft 439 kts 27°
2026-04-25 21:07 36.50326 -9.64801 36115 ft 438 kts 27°
2026-04-25 21:08 36.55625 -9.61054 36114 ft 438 kts 27°
2026-04-25 21:08 36.60921 -9.57309 36115 ft 438 kts 27°
2026-04-25 21:09 36.68893 -9.51667 36110 ft 437 kts 27°
2026-04-25 21:09 36.74177 -9.47923 36110 ft 437 kts 27°
2026-04-25 21:10 36.79448 -9.44170 36108 ft 436 kts 27°
2026-04-25 21:10 36.84682 -9.40450 36110 ft 435 kts 27°
2026-04-25 21:11 36.89940 -9.36700 36108 ft 435 kts 27°
2026-04-25 21:11 36.95193 -9.32943 36104 ft 435 kts 27°
2026-04-25 21:12 37.00444 -9.29191 36102 ft 434 kts 27°
2026-04-25 21:12 37.03952 -9.26681 36096 ft 434 kts 27°
2026-04-25 21:13 37.10942 -9.21669 36065 ft 436 kts 27°
2026-04-25 21:13 37.16197 -9.17889 35001 ft 436 kts 27°
2026-04-25 21:14 37.18849 -9.15980 33748 ft 440 kts 27°
2026-04-25 21:14 37.21494 -9.14071 32662 ft 437 kts 28°
2026-04-25 21:14 37.24107 -9.12181 31830 ft 429 kts 28°
2026-04-25 21:14 37.26640 -9.10351 31368 ft 413 kts 28°
2026-04-25 21:15 37.29088 -9.08582 30888 ft 399 kts 28°
2026-04-25 21:15 37.31454 -9.06870 30439 ft 386 kts 28°
2026-04-25 21:15 37.33748 -9.05210 29971 ft 374 kts 28°
2026-04-25 21:15 37.35994 -9.03588 29473 ft 372 kts 28°
2026-04-25 21:16 37.38281 -9.01942 29112 ft 384 kts 28°
2026-04-25 21:16 37.40602 -9.00270 28689 ft 384 kts 28°
2026-04-25 21:16 37.42914 -8.98597 28260 ft 383 kts 28°
2026-04-25 21:16 37.45213 -8.96928 27840 ft 380 kts 28°
2026-04-25 21:17 37.47495 -8.95268 27418 ft 378 kts 28°
2026-04-25 21:17 37.49761 -8.93618 26998 ft 375 kts 28°
2026-04-25 21:17 37.52012 -8.91976 26570 ft 373 kts 29°
2026-04-25 21:17 37.54248 -8.90346 26135 ft 370 kts 29°
2026-04-25 21:18 37.55722 -8.89278 25853 ft 368 kts 27°
2026-04-25 21:18 37.58070 -8.88046 25409 ft 365 kts 14°
2026-04-25 21:18 37.60558 -8.87533 24969 ft 361 kts
2026-04-25 21:18 37.63859 -8.87964 24280 ft 362 kts 345°
2026-04-25 21:19 37.66251 -8.88924 23875 ft 359 kts 342°
2026-04-25 21:19 37.68637 -8.89904 23354 ft 359 kts 342°
2026-04-25 21:19 37.70233 -8.90556 23089 ft 355 kts 342°
2026-04-25 21:19 37.72579 -8.91513 22615 ft 354 kts 342°
2026-04-25 21:20 37.74915 -8.92448 22234 ft 349 kts 343°
2026-04-25 21:20 37.76443 -8.93055 22015 ft 346 kts 343°
2026-04-25 21:20 37.79493 -8.94273 21492 ft 342 kts 343°
2026-04-25 21:20 37.81750 -8.95181 21089 ft 339 kts 343°
2026-04-25 21:21 37.83993 -8.96085 20687 ft 337 kts 343°
2026-04-25 21:21 37.86212 -8.96981 20092 ft 333 kts 343°
2026-04-25 21:21 37.88408 -8.97873 19409 ft 330 kts 343°
2026-04-25 21:21 37.90590 -8.98760 18742 ft 328 kts 343°
2026-04-25 21:22 37.92760 -8.99644 18053 ft 327 kts 343°
2026-04-25 21:22 37.94913 -9.00524 17356 ft 323 kts 343°
2026-04-25 21:22 37.97041 -9.01402 16702 ft 320 kts 343°
2026-04-25 21:22 37.99144 -9.02276 16066 ft 316 kts 343°
2026-04-25 21:23 38.01231 -9.03120 15387 ft 315 kts 345°
2026-04-25 21:23 38.03333 -9.03895 14714 ft 314 kts 346°
2026-04-25 21:23 38.05399 -9.04618 14112 ft 311 kts 346°
2026-04-25 21:23 38.07475 -9.05330 13471 ft 307 kts 346°
2026-04-25 21:24 38.09555 -9.06040 12884 ft 302 kts 346°
2026-04-25 21:24 38.11541 -9.06725 12508 ft 290 kts 346°
2026-04-25 21:24 38.13423 -9.07384 12142 ft 279 kts 346°
2026-04-25 21:24 38.15308 -9.08048 11757 ft 286 kts 346°
2026-04-25 21:25 38.17253 -9.08733 11382 ft 292 kts 346°
2026-04-25 21:25 38.19216 -9.09427 11016 ft 293 kts 346°
2026-04-25 21:25 38.21175 -9.10120 10645 ft 292 kts 346°
2026-04-25 21:25 38.23128 -9.10811 10264 ft 291 kts 346°
2026-04-25 21:26 38.25078 -9.11506 9878 ft 291 kts 346°
2026-04-25 21:26 38.27022 -9.12201 9480 ft 290 kts 346°
2026-04-25 21:26 38.28952 -9.12887 9095 ft 288 kts 346°
2026-04-25 21:26 38.30872 -9.13568 8733 ft 285 kts 346°
2026-04-25 21:27 38.32780 -9.14245 8338 ft 284 kts 346°
2026-04-25 21:27 38.34681 -9.14921 7931 ft 283 kts 346°
2026-04-25 21:27 38.36571 -9.15592 7551 ft 281 kts 346°
2026-04-25 21:27 38.38450 -9.16260 7170 ft 278 kts 346°
2026-04-25 21:28 38.40319 -9.16926 6762 ft 278 kts 346°
2026-04-25 21:28 38.42178 -9.17590 6354 ft 277 kts 346°
2026-04-25 21:28 38.44029 -9.18251 5918 ft 276 kts 346°
2026-04-25 21:28 38.45854 -9.18903 5605 ft 270 kts 346°
2026-04-25 21:29 38.47664 -9.19551 5189 ft 269 kts 346°
2026-04-25 21:29 38.49463 -9.20192 4797 ft 268 kts 346°
2026-04-25 21:29 38.51231 -9.20823 4556 ft 259 kts 346°
2026-04-25 21:29 38.52925 -9.21429 4427 ft 247 kts 346°
2026-04-25 21:30 38.54534 -9.22006 4311 ft 234 kts 346°
2026-04-25 21:30 38.56063 -9.22554 4215 ft 223 kts 347°
2026-04-25 21:30 38.57521 -9.23076 4114 ft 212 kts 347°
2026-04-25 21:30 38.58453 -9.23379 4010 ft 206 kts 354°
2026-04-25 21:31 38.60286 -9.23113 3727 ft 196 kts 24°
2026-04-25 21:31 38.61523 -9.22454 3503 ft 190 kts 24°
2026-04-25 21:31 38.62727 -9.21812 3231 ft 184 kts 24°
2026-04-25 21:31 38.63864 -9.21208 2996 ft 169 kts 24°
2026-04-25 21:32 38.64914 -9.20648 2807 ft 158 kts 25°
2026-04-25 21:32 38.65890 -9.20129 2600 ft 146 kts 25°
2026-04-25 21:32 38.66808 -9.19640 2418 ft 141 kts 24°
2026-04-25 21:32 38.67699 -9.19165 2253 ft 138 kts 24°
2026-04-25 21:33 38.68582 -9.18694 2061 ft 137 kts 24°
2026-04-25 21:33 38.69460 -9.18225 1877 ft 136 kts 24°
2026-04-25 21:33 38.70335 -9.17759 1703 ft 136 kts 23°
2026-04-25 21:33 38.71210 -9.17292 1510 ft 137 kts 22°
2026-04-25 21:34 38.72086 -9.16823 1332 ft 136 kts 24°
2026-04-25 21:34 38.72954 -9.16360 1160 ft 135 kts 21°
2026-04-25 21:34 38.73823 -9.15896 970 ft 135 kts 20°
2026-04-25 21:34 38.74688 -9.15434 779 ft 137 kts 21°
2026-04-25 21:35 38.75566 -9.14966 594 ft 134 kts 19°
2026-04-25 21:35 38.76425 -9.14510 420 ft 132 kts 19°
2026-04-25 21:35 38.77248 -9.14069 358 ft 115 kts 22°
2026-04-25 21:35 38.77827 -9.13756 365 ft 65 kts 22°
2026-04-25 21:36 38.78133 -9.13592 368 ft 30 kts 23°
2026-04-25 21:36 38.78296 -9.13453 367 ft 20 kts 43°
2026-04-25 21:36 38.78371 -9.13347 367 ft 12 kts 60°
2026-04-25 21:36 38.78357 -9.13266 361 ft 9 kts 143°
2026-04-25 21:37 38.78294 -9.13278 362 ft 9 kts 203°
2026-04-25 21:37 38.78256 -9.13299 361 ft 9 kts 202°
2026-04-25 21:37 38.78181 -9.13338 361 ft 10 kts 202°
2026-04-25 21:37 38.78069 -9.13398 358 ft 18 kts 202°
2026-04-25 21:38 38.77947 -9.13397 353 ft 19 kts 168°
2026-04-25 21:38 38.77810 -9.13359 346 ft 21 kts 168°
2026-04-25 21:38 38.77666 -9.13323 335 ft 18 kts 171°
2026-04-25 21:38 38.77549 -9.13312 338 ft 16 kts 168°
2026-04-25 21:39 38.77474 -9.13282 337 ft 7 kts 129°
2026-04-25 21:39 38.77479 -9.13224 337 ft 7 kts 78°
2026-04-25 21:39 38.77488 -9.13169 337 ft 3 kts 78°
2026-04-25 21:39 38.77490 -9.13155 337 ft 0 kts 78°